This is the latest recevied weather packets stored in our database for station/object EA1IQY-10. If no packets are shown the sender has not sent any weather packets the latest 10 day(s).
| Time | Temp. | Humidity | Pressure | Rain* | Wind** | Luminosity | Snow |
|---|---|---|---|---|---|---|---|
| 1777493532 | 17.78° C | 100% | 998.5 hPa | - | - | - | - |
| 1777492632 | 18.33° C | 100% | 998.4 hPa | - | - | - | - |
| 1777491732 | 18.89° C | 100% | 998.1 hPa | - | - | - | - |
| 1777490832 | 17.78° C | 100% | 997.7 hPa | - | - | - | - |
| 1777489932 | 19.44° C | 100% | 997.5 hPa | - | - | - | - |
| 1777489032 | 20° C | 100% | 997.3 hPa | - | - | - | - |
| 1777488132 | 21.67° C | 100% | 997.2 hPa | - | - | - | - |
| 1777487231 | 20° C | 100% | 997 hPa | - | - | - | - |
| 1777486331 | 18.33° C | 100% | 997 hPa | - | - | - | - |
| 1777485431 | 21.67° C | 100% | 996.8 hPa | - | - | - | - |
| 1777484531 | 20.56° C | 100% | 996.6 hPa | - | - | - | - |
| 1777483631 | 21.67° C | 100% | 996.7 hPa | - | - | - | - |
| 1777482731 | 20.56° C | 100% | 996.7 hPa | - | - | - | - |
| 1777481831 | 22.22° C | 100% | 996.6 hPa | - | - | - | - |
| 1777480931 | 21.11° C | 100% | 996.4 hPa | - | - | - | - |
| 1777480030 | 19.44° C | 100% | 996.2 hPa | - | - | - | - |
| 1777479130 | 21.67° C | 100% | 996.2 hPa | - | - | - | - |
| 1777478416 | 22.22° C | 100% | 996.2 hPa | - | - | - | - |
| 1777478266 | 22.22° C | 100% | 996.2 hPa | - | - | - | - |
| 1777478230 | 22.22° C | 100% | 996.2 hPa | - | - | - | - |
| 1777477330 | 20.56° C | 100% | 996.2 hPa | - | - | - | - |
| 1777476430 | 18.89° C | 100% | 996.2 hPa | - | - | - | - |
| 1777475530 | 20.56° C | 100% | 996.3 hPa | - | - | - | - |
| 1777474630 | 20.56° C | 100% | 996.4 hPa | - | - | - | - |
| 1777473730 | 20.56° C | 100% | 996.1 hPa | - | - | - | - |
* Rain since midnight (hover to see other rain measurements)
** Current wind speed in m/s (hover to see current wind gust speed)